Regional Weather Roundup
Issued by NWS

Home | Current Version | Previous Version | Graphics & Text | Print | Product List | Glossary On
Versions: 1 2 3 4 5 6 7 8 9 10 11 12 13 14 15 16 17 18 19 20 21 22 23 24 25 26 27 28 29 30 31 32 33 34 35 36 37 38 39 40 41 42 43 44 45 46 47 48 49 50
000
ASUS43 KMPX 210810
RWRMN
WEATHER ROUNDUP FOR MINNESOTA
NATIONAL WEATHER SERVICE TWIN CITIES/CHANHASSEN MN
300 AM CDT FRI JUL 21 2017


NOTE: "FAIR" INDICATES FEW OR NO CLOUDS BELOW 12,000 FEET WITH NO
SIGNIFICANT WEATHER AND/OR OBSTRUCTIONS TO VISIBILITY. N/A MEANS
CURRENT SKY AND/OR WEATHER CONDITIONS ARE NOT AVAILABLE.

MNZ060>063-068>070-210900-
   Twin Cities Metro

CITY           SKY/WX    TMP DP  RH WIND       PRES   REMARKS
TWIN CITIES    CLEAR     70  66  87 NE5       29.98F
ST PAUL        CLEAR     69  69 100 E3        29.98F FOG
CRYSTAL        PTCLDY    64  61  90 CALM      29.97F FOG
BLAINE         PTCLDY    70  70 100 CALM      29.98S
LAKEVILLE      FOG       63  63 100 CALM      29.98S VSB 1/4
EDEN PRAIRIE   CLEAR     69  67  93 E3        29.96F FOG
SOUTH ST PAUL  CLEAR     70  69  96 CALM      29.98S
LAKE ELMO      FAIR      66  66 100 CALM      30.01S FOG
$$
MNZ001>005-007-008-013>017-022>024-027-028-210900-
   Northwest Minnesota

CITY           SKY/WX    TMP DP  RH WIND       PRES   REMARKS
BEMIDJI        MOCLDY    65  60  85 SE5       29.94S
HALLOCK        CLOUDY    66  61  82 E8        29.89S
ROSEAU         CLOUDY    64  61  88 CALM      29.95S
WARROAD        CLOUDY    64  61  88 E3        29.93S
THIEF RVR FALL CLOUDY    67  60  78 E6        29.93R
CROOKSTON      CLOUDY    68  63  83 E7        29.89F
FOSSTON        CLOUDY    66  59  77 SE6       29.93R
DETROIT LAKES  CLOUDY    72  64  78 S9        29.94S
MOORHEAD       CLOUDY    73  66  78 S10       29.88F
PARK RAPIDS      N/A     70  65  84 E5        29.94F
MAHNOMEN       FAIR      69  65  88 S6        29.91F
$$
MNZ006-009>011-018-025>026-210900-
   North Central Minnesota

CITY           SKY/WX    TMP DP  RH WIND       PRES   REMARKS
BAUDETTE       PTCLDY    61  55  81 E6        29.92F
FLAG ISLAND    PTCLDY    66  61  82 CALM      29.92F THUNDER HAZE
INTL FALLS     CLOUDY    52  50  93 CALM      29.95F
WASKISH        PTCLDY    61  54  77 E6        29.94S
BIG FORK       CLOUDY    55  55 100 CALM      29.97S
LONGVILLE      CLOUDY    61  61 100 CALM      29.95S FOG
GRAND RAPIDS   CLOUDY    61  60  97 CALM      29.98S FOG
CRANE LAKE     PTCLDY    52  50  93 CALM      29.99S
ORR            PTCLDY    54  52  94 CALM      29.95F
COOK           CLEAR     55  55 100 CALM      29.97F
WALKER         FAIR      61  60  97 CALM      29.95S
$$
MNZ012-019>021-037-210900-
   Northeast Minnesota

CITY           SKY/WX    TMP DP  RH WIND       PRES   REMARKS
DULUTH         CLOUDY    62  60  93 CALM      29.97S
ELY            CLEAR     54  54 100 CALM      29.99S
HIBBING        PTCLDY    54  54 100 CALM      29.97S FOG
EVELETH        PTCLDY    55  52  90 CALM      29.99S
DULUTH HARBOR  MOCLDY    70  64  83 CALM      29.95S
TWO HARBORS    CLEAR     64  61  88 CALM      29.95R
SILVER BAY     CLOUDY    61  57  88 CALM      29.96R
GRAND MARAIS     N/A     60  54  80 CALM      29.93S
G MARAIS ARPRT PTCLDY    59  46  63 NW3       30.00R
$$
MNZ029>031-032-039>041-046>048-054>057-064-210900-
   West Central Minnesota

CITY           SKY/WX    TMP DP  RH WIND       PRES   REMARKS
FERGUS FALLS   CLOUDY    72  72 100 S10       29.90S
WHEATON        CLOUDY    70  66  88 SE10      29.89F
MORRIS         CLOUDY    70  66  88 SE7       29.92F FOG
ALEXANDRIA     CLOUDY    69  67  93 SE6       29.96F
ELBOW LAKE     FAIR      69  68  97 E8        29.92F
WADENA         CLOUDY    66  66 100 CALM      29.94F
GLENWOOD       CLOUDY    66  64  94 SE5       29.96F FOG
APPLETON       CLOUDY    70  66  88 CALM      29.93R
BENSON         MOCLDY    70  66  88 SE5       29.95S
ORTONVILLE     CLOUDY    70  66  88 MISG      29.93S
MADISON        CLOUDY    70  70 100 CALM      29.93S FOG
WILLMAR        FAIR      70  68  94 E6        29.96F
$$
MNZ033>034-036-042>043-049>051-058-059-210900-
   Central Minnesota

CITY           SKY/WX    TMP DP  RH WIND       PRES   REMARKS
ST CLOUD       CLOUDY    63  63 100 CALM      29.98R FOG
SAUK CENTRE    FAIR      66  65  97 E3        29.97S
PAYNESVILLE    CLOUDY    69  68  96 SE7       29.97S
AITKIN         CLOUDY    63  61  94 CALM      29.95S
PINE RIVER     CLOUDY    64  64 100 CALM      29.99S
BRAINERD       CLOUDY    64  63  96 CALM      29.96S FOG
STAPLES        CLOUDY    66  66 100 SE7       29.93F
LONG PRAIRIE   FAIR      64  64 100 E3        29.97F
LITTLE FALLS   CLOUDY    64  63  94 CALM      29.97S
LITCHFIELD     PTCLDY    66  66 100 CALM      29.97F FOG
BUFFALO        CLOUDY    65  62  90 CALM      29.99S
MAPLE LAKE     FOG       64  64  98 CALM      29.99F VSB 1
HUTCHINSON     CLOUDY    66  66 100 NE3       29.98S FOG
$$
MNZ037-044-045-052-053-210900-
   East Central Minnesota

CITY           SKY/WX    TMP DP  RH WIND       PRES   REMARKS
PRINCETON      CLOUDY    63  63 100 CALM      29.98S
MORA           CLOUDY    64  64 100 CALM      29.99R
CAMBRIDGE      CLOUDY    66  63  88 CALM      29.97R
RUSH CITY      PTCLDY    64  63  96 CALM      29.98R FOG
MOOSE LAKE     PTCLDY    61  59  94 CALM      29.95F FOG
HINCKLEY       FAIR      63  63 100 CALM      29.96S
CLOQUET        MOCLDY    63  59  88 CALM      29.97S
MCGREGOR       CLOUDY    61  61 100 CALM      29.96F
$$
MNZ071>073-080-081-089-090-097-098-210900-
   Southwest Minnesota

CITY           SKY/WX    TMP DP  RH WIND       PRES   REMARKS
MONTEVIDEO     CLOUDY    66  66 100 SE5       29.93F FOG
GRANITE FALLS  CLOUDY    70  69  95 E5        29.94F
CANBY          CLOUDY    66  65  96 CALM      29.94F FOG
MARSHALL       CLOUDY    71  69  93 SE6       29.93F
REDWOOD FALLS  CLOUDY    70  68  93 E6        29.93F
OLIVIA         PTCLDY    70  68  94 SE6       29.94F
PIPESTONE      CLOUDY    73  72  94 E6        29.93F
WINDOM         CLEAR     73  70  88 E5        29.94F
WORTHINGTON    CLOUDY    73  72  96 SE7       29.95F
JACKSON        PTCLDY    72  72 100 CALM      29.95F
TRACY          PTCLDY    72  71  97 S6        29.94F
SLAYTON        PTCLDY    71  69  93 SE7       29.95F
$$
MNZ065>067-074>077-082>085-091>093-210900-
   South Central Minnesota

CITY           SKY/WX    TMP DP  RH WIND       PRES   REMARKS
MANKATO        CLEAR     71  69  93 SE9       29.96F
NEW ULM        PTCLDY    70  68  94 SE6       29.94F
ST JAMES       CLEAR     70  70 100 SE7       29.95F
FAIRMONT       CLOUDY    71  70  96 E6        29.94F
GLENCOE          N/A     65  65 100 CALM      29.96F FOG
FARIBAULT      FOG       63  63 100 CALM      29.97F VSB 1/4
OWATONNA       CLOUDY    68  66  94 SE5       29.97F
WASECA         CLOUDY    68  64  88 E6        29.97F
ALBERT LEA     CLOUDY    72  68  88 SE5       29.97F
$$
MNZ078>079-086>088-094>096-210900-
   Southeast Minnesota

CITY           SKY/WX    TMP DP  RH WIND       PRES   REMARKS
ROCHESTER      CLOUDY    66  66 100 SE7       29.98F
RED WING       PTCLDY    66  64  94 CALM      29.98S FOG
STANTON        FOG       64  63  95 NE3       29.96F VSB 1/4
DODGE CENTER   CLOUDY    68  66  94 E5        29.98F
WINONA         CLOUDY    68  66  94 CALM      29.98F
AUSTIN         CLOUDY    66  64  94 E3        29.97F
PRESTON        CLOUDY    68  64  87 SE3       29.99F
$$
ABBREVIATIONS USED IN REMARKS
   TC - TEMPERATURES IN CELSIUS
  WCI - WIND CHILL INDEX
   HX - HEAT INDEX
  VSB - VISIBILITY
$$




USA.gov is the U.S. government's official web portal to all federal, state and local government web resources and services.